Location: Jagodina
(43.9830°N, 21.2500°E)
Time: 06:08:42
(UTC+02:00)

ISS - Visible Passes

Search period start: 10 May 2021 00:00
Search period end: 20 May 2021 00:00
Orbit: 417 x 421 km, 51.6° (Epoch: 09 May)

Date Brightness Start Highest point End Pass type
(mag) Time Alt. Az. Time Alt. Az. Time Alt. Az.
10 May -1.2 01:17:27 21° NNE 01:17:27 21° NNE 01:18:53 10° NE visible
10 May -1.3 02:50:34 10° NW 02:53:16 21° N 02:55:57 10° NE visible
10 May -2.1 04:27:31 10° NW 04:30:43 37° NNE 04:33:54 10° E visible
11 May -0.6 00:31:24 11° NE 00:31:24 11° NE 00:31:30 10° NE visible
11 May -1.3 02:04:20 18° NW 02:05:38 22° N 02:08:21 10° NE visible
11 May -1.7 03:40:08 10° NW 03:43:09 29° NNE 03:46:11 10° E visible
12 May -1.4 01:18:16 23° N 01:18:16 23° N 01:20:49 10° NE visible
12 May -1.4 02:52:42 10° NW 02:55:34 25° N 02:58:26 10° ENE visible
12 May -3.6 04:29:23 10° WNW 04:32:46 77° NNE 04:36:08 10° ESE visible
13 May -1.0 00:32:06 18° NNE 00:32:06 18° NNE 00:33:21 10° NE visible
13 May -1.2 02:05:12 10° NW 02:07:56 22° N 02:10:42 10° ENE visible
13 May -2.9 03:41:59 10° NW 03:45:17 51° NNE 03:48:36 10° ESE visible
13 May -0.7 23:45:43 11° NE 23:45:43 11° NE 23:45:56 10° NE visible
14 May -1.2 01:18:37 15° NW 01:20:19 21° N 01:23:00 10° NE visible
14 May -2.2 02:54:34 10° NW 02:57:46 37° NNE 03:00:57 10° E visible
14 May -3.3 04:31:25 10° WNW 04:34:36 40° SW 04:37:47 10° SSE visible
14 May -3.0 21:15:34 10° SSW 21:18:33 30° SE 21:21:33 10° ENE visible
14 May -2.6 22:52:02 10° W 22:55:17 44° NNW 22:58:33 10° NE visible
15 May -1.2 00:29:57 10° WNW 00:32:40 22° N 00:35:23 10° NE visible
15 May -1.7 02:07:10 10° NW 02:10:12 29° NNE 02:13:13 10° E visible
15 May -3.8 03:43:52 10° WNW 03:47:13 67° SW 03:50:35 10° SE visible
15 May -2.3 20:28:49 10° S 20:31:16 19° SE 20:33:42 10° E visible
15 May -3.4 22:04:26 10° WSW 22:07:46 65° NNW 22:11:08 10° NE visible
15 May -1.3 23:42:14 10° WNW 23:45:03 24° N 23:47:51 10° NE visible
16 May -1.4 01:19:44 10° NW 01:22:36 25° NNE 01:25:28 10° ENE visible
16 May -3.7 02:56:24 10° WNW 02:59:48 78° NNE 03:03:10 10° ESE visible
16 May -3.9 21:16:57 10° SW 21:20:19 82° SSE 21:23:41 10° ENE visible
16 May -1.6 22:54:29 10° WNW 22:57:25 27° NNW 23:00:22 10° NE visible
17 May -1.2 00:32:13 10° NW 00:34:58 22° N 00:37:43 10° ENE visible
17 May -3.0 02:08:59 10° NW 02:12:19 52° NNE 02:15:37 10° ESE visible
17 May -2.7 03:46:08 10° W 03:48:57 25° SW 03:51:45 10° SSE visible
17 May -3.6 20:29:39 10° SW 20:32:55 50° SE 20:36:11 10° ENE visible
17 May -1.9 22:06:44 10° W 22:09:50 33° NNW 22:12:56 10° NE visible
17 May -1.2 23:44:38 10° NW 23:47:19 21° N 23:50:00 10° NE visible
18 May -1.4 01:21:36 10° NW 01:22:53 20° NW 01:22:53 20° NW visible
18 May -2.5 21:19:02 10° W 21:22:16 44° NNW 21:25:32 10° NE visible
18 May -1.2 22:56:58 10° WNW 22:59:40 22° N 23:02:23 10° NE visible
19 May -1.6 00:34:10 10° NW 00:36:28 27° N 00:36:28 27° N visible
19 May -3.2 20:31:26 10° WSW 20:34:46 64° NNW 20:38:07 10° NE visible
19 May -1.3 22:09:14 10° WNW 22:12:02 23° N 22:14:50 10° NE visible
19 May -1.6 23:46:43 10° NW 23:49:35 25° NNE 23:50:17 23° NNE visible
